Time,TemperatureF,DewpointF,PressureIn,WindDirection,WindDirectionDegrees,WindSpeedMPH,WindSpeedGustMPH,Humidity,HourlyPrecipIn,Conditions,Clouds,dailyrainin,SoftwareType,DateUTC
2013-03-21 00:00:00,27.4,16.1,29.92,WNW,286,3.0,11.0,62,0.00,,---,0.00,VWS V13.01,2013-03-21 04:00:00,
2013-03-21 00:05:00,27.4,16.5,29.92,WNW,302,3.0,10.0,63,0.00,,---,0.00,VWS V13.01,2013-03-21 04:05:00,
2013-03-21 00:10:00,27.4,16.1,29.92,West,272,2.0,10.0,62,0.00,,---,0.00,VWS V13.01,2013-03-21 04:10:00,
2013-03-21 00:15:00,27.4,16.5,29.92,WSW,241,2.0,10.0,63,0.00,,---,0.00,VWS V13.01,2013-03-21 04:15:00,
2013-03-21 00:20:00,27.4,16.1,29.92,WNW,301,4.0,10.0,62,0.00,,---,0.00,VWS V13.01,2013-03-21 04:20:00,
2013-03-21 00:25:00,27.3,16.4,29.92,West,275,4.0,10.0,63,0.00,,---,0.00,VWS V13.01,2013-03-21 04:25:00,
2013-03-21 00:30:00,27.2,16.3,29.92,SW,219,4.0,4.0,63,0.00,,---,0.00,VWS V13.01,2013-03-21 04:30:00,
2013-03-21 00:35:00,27.0,16.1,29.92,WNW,299,2.0,11.0,63,0.00,,---,0.00,VWS V13.01,2013-03-21 04:35:00,
2013-03-21 00:40:00,26.9,16.4,29.92,NW,306,4.0,11.0,64,0.00,,---,0.00,VWS V13.01,2013-03-21 04:40:00,
2013-03-21 00:45:00,26.8,16.3,29.92,WNW,298,0.0,11.0,64,0.00,,---,0.00,VWS V13.01,2013-03-21 04:45:00,
2013-03-21 00:50:00,26.6,16.4,29.92,WNW,297,1.0,11.0,65,0.00,,---,0.00,VWS V13.01,2013-03-21 04:50:00,
2013-03-21 00:55:00,26.6,16.8,29.91,NW,305,3.0,11.0,66,0.00,,---,0.00,VWS V13.01,2013-03-21 04:55:00,
2013-03-21 01:00:00,26.5,16.7,29.91,NNW,330,4.0,6.0,66,0.00,,---,0.00,VWS V13.01,2013-03-21 05:00:00,
2013-03-21 01:05:00,26.4,16.6,29.91,NW,323,4.0,9.0,66,0.00,,---,0.00,VWS V13.01,2013-03-21 05:05:00,
2013-03-21 01:10:00,26.4,16.6,29.91,WNW,301,2.0,10.0,66,0.00,,---,0.00,VWS V13.01,2013-03-21 05:10:00,
2013-03-21 01:15:00,26.2,16.4,29.91,NW,315,5.0,10.0,66,0.00,,---,0.00,VWS V13.01,2013-03-21 05:15:00,
2013-03-21 01:20:00,26.2,16.4,29.91,NNW,328,2.0,10.0,66,0.00,,---,0.00,VWS V13.01,2013-03-21 05:20:00,
2013-03-21 01:25:00,26.0,16.6,29.91,NW,324,3.0,10.0,67,0.00,,---,0.00,VWS V13.01,2013-03-21 05:25:00,
2013-03-21 01:30:00,25.9,16.5,29.90,WNW,297,0.0,0.0,67,0.00,,---,0.00,VWS V13.01,2013-03-21 05:30:00,
2013-03-21 01:35:00,25.7,16.3,29.90,WNW,300,2.0,3.0,67,0.00,,---,0.00,VWS V13.01,2013-03-21 05:35:00,
2013-03-21 01:40:00,25.6,16.5,29.90,WNW,300,1.0,3.0,68,0.00,,---,0.00,VWS V13.01,2013-03-21 05:40:00,
2013-03-21 01:45:00,25.4,16.7,29.90,WNW,300,0.0,3.0,69,0.00,,---,0.00,VWS V13.01,2013-03-21 05:45:00,
2013-03-21 01:50:00,25.2,16.5,29.90,WNW,300,0.0,3.0,69,0.00,,---,0.00,VWS V13.01,2013-03-21 05:50:00,
2013-03-21 01:55:00,25.1,16.4,29.90,WNW,300,0.0,3.0,69,0.00,,---,0.00,VWS V13.01,2013-03-21 05:55:00,
2013-03-21 02:00:00,24.9,16.5,29.90,WNW,300,1.0,2.0,70,0.00,,---,0.00,VWS V13.01,2013-03-21 06:00:00,
2013-03-21 02:05:00,24.9,16.8,29.90,WNW,299,1.0,3.0,71,0.00,,---,0.00,VWS V13.01,2013-03-21 06:05:00,
2013-03-21 02:10:00,25.0,17.3,29.90,WNW,296,1.0,4.0,72,0.00,,---,0.00,VWS V13.01,2013-03-21 06:10:00,
2013-03-21 02:15:00,25.2,17.5,29.90,WNW,294,7.0,8.0,72,0.00,,---,0.00,VWS V13.01,2013-03-21 06:15:00,
2013-03-21 02:20:00,25.3,18.2,29.90,NW,309,3.0,8.0,74,0.00,,---,0.00,VWS V13.01,2013-03-21 06:20:00,
2013-03-21 02:25:00,25.1,18.9,29.90,NW,325,0.0,8.0,77,0.00,,---,0.00,VWS V13.01,2013-03-21 06:25:00,
2013-03-21 02:30:00,24.8,19.2,29.90,NNW,335,1.0,1.0,79,0.00,,---,0.00,VWS V13.01,2013-03-21 06:30:00,
2013-03-21 02:35:00,24.5,19.2,29.89,NNW,327,2.0,5.0,80,0.00,,---,0.00,VWS V13.01,2013-03-21 06:35:00,
2013-03-21 02:40:00,24.4,19.1,29.89,WNW,292,1.0,5.0,80,0.00,,---,0.00,VWS V13.01,2013-03-21 06:40:00,
2013-03-21 02:45:00,24.3,19.0,29.89,NW,305,1.0,5.0,80,0.00,,---,0.00,VWS V13.01,2013-03-21 06:45:00,
2013-03-21 02:50:00,24.2,18.9,29.89,NW,313,0.0,5.0,80,0.00,,---,0.00,VWS V13.01,2013-03-21 06:50:00,
2013-03-21 02:55:00,24.1,19.1,29.89,NW,306,0.0,5.0,81,0.00,,---,0.00,VWS V13.01,2013-03-21 06:55:00,
2013-03-21 03:00:00,24.1,19.1,29.89,West,276,0.0,3.0,81,0.00,,---,0.00,VWS V13.01,2013-03-21 07:00:00,
2013-03-21 03:05:00,24.0,19.0,29.89,West,270,0.0,5.0,81,0.00,,---,0.00,VWS V13.01,2013-03-21 07:05:00,
2013-03-21 03:10:00,24.0,19.0,29.88,West,274,3.0,5.0,81,0.00,,---,0.00,VWS V13.01,2013-03-21 07:10:00,
2013-03-21 03:15:00,24.0,19.0,29.88,WNW,289,1.0,6.0,81,0.00,,---,0.00,VWS V13.01,2013-03-21 07:15:00,
2013-03-21 03:20:00,24.0,19.0,29.88,WNW,288,0.0,6.0,81,0.00,,---,0.00,VWS V13.01,2013-03-21 07:20:00,
2013-03-21 03:25:00,24.0,18.7,29.88,WSW,251,3.0,6.0,80,0.00,,---,0.00,VWS V13.01,2013-03-21 07:25:00,
2013-03-21 03:30:00,23.9,18.6,29.88,West,273,4.0,6.0,80,0.00,,---,0.00,VWS V13.01,2013-03-21 07:30:00,
2013-03-21 03:35:00,24.0,18.1,29.87,WSW,254,7.0,9.0,78,0.00,,---,0.00,VWS V13.01,2013-03-21 07:35:00,
2013-03-21 03:40:00,24.0,18.1,29.88,West,265,2.0,9.0,78,0.00,,---,0.00,VWS V13.01,2013-03-21 07:40:00,
2013-03-21 03:45:00,24.0,18.1,29.87,WSW,250,0.0,9.0,78,0.00,,---,0.00,VWS V13.01,2013-03-21 07:45:00,
2013-03-21 03:50:00,24.0,18.5,29.87,WNW,290,3.0,12.0,79,0.00,,---,0.00,VWS V13.01,2013-03-21 07:50:00,
2013-03-21 03:55:00,24.0,18.5,29.87,West,269,2.0,12.0,79,0.00,,---,0.00,VWS V13.01,2013-03-21 07:55:00,
2013-03-21 04:00:00,23.9,18.4,29.87,West,279,3.0,3.0,79,0.00,,---,0.00,VWS V13.01,2013-03-21 08:00:00,
2013-03-21 04:05:00,23.8,18.0,29.87,West,259,3.0,10.0,78,0.00,,---,0.00,VWS V13.01,2013-03-21 08:05:00,
2013-03-21 04:10:00,23.6,17.8,29.87,NW,321,2.0,10.0,78,0.00,,---,0.00,VWS V13.01,2013-03-21 08:10:00,
2013-03-21 04:15:00,23.4,17.6,29.87,West,281,4.0,10.0,78,0.00,,---,0.00,VWS V13.01,2013-03-21 08:15:00,
2013-03-21 04:20:00,23.3,17.8,29.87,West,279,5.0,10.0,79,0.00,,---,0.00,VWS V13.01,2013-03-21 08:20:00,
2013-03-21 04:25:00,23.3,17.8,29.87,West,267,7.0,10.0,79,0.00,,---,0.00,VWS V13.01,2013-03-21 08:25:00,
2013-03-21 04:30:00,23.2,18.0,29.87,NW,309,3.0,6.0,80,0.00,,---,0.00,VWS V13.01,2013-03-21 08:30:00,
2013-03-21 04:35:00,23.2,18.0,29.87,West,275,1.0,8.0,80,0.00,,---,0.00,VWS V13.01,2013-03-21 08:35:00,
2013-03-21 04:40:00,23.2,18.0,29.87,West,280,4.0,9.0,80,0.00,,---,0.00,VWS V13.01,2013-03-21 08:40:00,
2013-03-21 04:45:00,23.2,18.0,29.87,West,280,2.0,9.0,80,0.00,,---,0.00,VWS V13.01,2013-03-21 08:45:00,
2013-03-21 04:50:00,23.1,18.1,29.87,WSW,250,4.0,9.0,81,0.00,,---,0.00,VWS V13.01,2013-03-21 08:50:00,
2013-03-21 04:55:00,23.0,18.0,29.87,WSW,254,3.0,9.0,81,0.00,,---,0.00,VWS V13.01,2013-03-21 08:55:00,
2013-03-21 05:00:00,22.9,18.2,29.87,West,267,4.0,8.0,82,0.00,,---,0.00,VWS V13.01,2013-03-21 09:00:00,
2013-03-21 05:05:00,22.9,18.5,29.87,WNW,300,2.0,8.0,83,0.00,,---,0.00,VWS V13.01,2013-03-21 09:05:00,
2013-03-21 05:10:00,22.8,18.4,29.87,WNW,287,3.0,8.0,83,0.00,,---,0.00,VWS V13.01,2013-03-21 09:10:00,
2013-03-21 05:15:00,22.8,18.1,29.87,West,267,7.0,11.0,82,0.00,,---,0.00,VWS V13.01,2013-03-21 09:15:00,
2013-03-21 05:20:00,22.7,18.0,29.87,West,272,3.0,11.0,82,0.00,,---,0.00,VWS V13.01,2013-03-21 09:20:00,
2013-03-21 05:25:00,22.6,18.2,29.87,West,272,2.0,11.0,83,0.00,,---,0.00,VWS V13.01,2013-03-21 09:25:00,
2013-03-21 05:30:00,22.6,18.5,29.87,WSW,248,3.0,3.0,84,0.00,,---,0.00,VWS V13.01,2013-03-21 09:30:00,
2013-03-21 05:35:00,22.5,18.7,29.88,West,275,1.0,8.0,85,0.00,,---,0.00,VWS V13.01,2013-03-21 09:35:00,
2013-03-21 05:41:00,22.3,18.5,29.88,SW,235,3.0,12.0,85,0.00,,---,0.00,VWS V13.01,2013-03-21 09:41:00,
2013-03-21 05:46:00,22.1,18.0,29.88,WNW,302,5.0,12.0,84,0.00,,---,0.00,VWS V13.01,2013-03-21 09:46:00,
2013-03-21 05:51:00,21.9,17.5,29.88,West,263,7.0,12.0,83,0.00,,---,0.00,VWS V13.01,2013-03-21 09:51:00,
2013-03-21 05:56:00,21.8,17.2,29.88,West,280,3.0,12.0,82,0.00,,---,0.00,VWS V13.01,2013-03-21 09:56:00,
2013-03-21 06:01:00,21.7,16.8,29.88,WNW,288,7.0,11.0,81,0.00,,---,0.00,VWS V13.01,2013-03-21 10:01:00,
2013-03-21 06:05:00,21.6,16.1,29.88,NW,315,6.0,14.0,79,0.00,,---,0.00,VWS V13.01,2013-03-21 10:05:00,
2013-03-21 06:10:00,21.5,16.0,29.88,NW,312,4.0,14.0,79,0.00,,---,0.00,VWS V13.01,2013-03-21 10:10:00,
2013-03-21 06:16:00,21.4,15.9,29.88,WNW,298,3.0,14.0,79,0.00,,---,0.00,VWS V13.01,2013-03-21 10:16:00,
2013-03-21 06:21:00,21.4,15.6,29.88,West,277,1.0,14.0,78,0.00,,---,0.00,VWS V13.01,2013-03-21 10:21:00,
2013-03-21 06:26:00,21.4,15.3,29.88,WSW,256,4.0,14.0,77,0.00,,---,0.00,VWS V13.01,2013-03-21 10:26:00,
2013-03-21 06:31:00,21.3,12.7,29.88,NW,317,5.0,9.0,69,0.00,,---,0.00,VWS V13.01,2013-03-21 10:31:00,
2013-03-21 06:36:00,21.3,12.1,29.88,WNW,292,9.0,12.0,67,0.00,,---,0.00,VWS V13.01,2013-03-21 10:36:00,
2013-03-21 06:41:00,21.1,11.2,29.88,WNW,282,5.0,13.0,65,0.00,,---,0.00,VWS V13.01,2013-03-21 10:41:00,
2013-03-21 06:46:00,21.0,11.1,29.88,West,263,6.0,13.0,65,0.00,,---,0.00,VWS V13.01,2013-03-21 10:46:00,
2013-03-21 06:51:00,21.0,11.1,29.88,West,277,2.0,13.0,65,0.00,,---,0.00,VWS V13.01,2013-03-21 10:51:00,
2013-03-21 06:56:00,20.9,11.0,29.88,NW,304,1.0,13.0,65,0.00,,---,0.00,VWS V13.01,2013-03-21 10:56:00,
2013-03-21 07:01:00,20.8,10.9,29.88,West,268,4.0,6.0,65,0.00,,---,0.00,VWS V13.01,2013-03-21 11:01:00,
2013-03-21 07:06:00,20.7,10.5,29.88,WSW,252,1.0,8.0,64,0.00,,---,0.00,VWS V13.01,2013-03-21 11:06:00,
2013-03-21 07:11:00,20.6,11.1,29.88,SW,230,3.0,8.0,66,0.00,,---,0.00,VWS V13.01,2013-03-21 11:11:00,
2013-03-21 07:16:00,20.4,11.2,29.88,West,261,1.0,8.0,67,0.00,,---,0.00,VWS V13.01,2013-03-21 11:16:00,
2013-03-21 07:21:00,20.2,11.7,29.88,SW,229,1.0,8.0,69,0.00,,---,0.00,VWS V13.01,2013-03-21 11:21:00,
2013-03-21 07:26:00,19.9,12.3,29.88,SW,217,1.0,8.0,72,0.00,,---,0.00,VWS V13.01,2013-03-21 11:26:00,
2013-03-21 07:31:00,19.8,12.9,29.88,SW,227,1.0,6.0,74,0.00,,---,0.00,VWS V13.01,2013-03-21 11:31:00,
2013-03-21 07:36:00,19.6,13.0,29.88,SW,221,1.0,6.0,75,0.00,,---,0.00,VWS V13.01,2013-03-21 11:36:00,
2013-03-21 07:41:00,19.5,13.2,29.88,SSW,205,1.0,6.0,76,0.00,,---,0.00,VWS V13.01,2013-03-21 11:41:00,
2013-03-21 07:46:00,19.4,13.4,29.88,SSW,203,1.0,6.0,77,0.00,,---,0.00,VWS V13.01,2013-03-21 11:46:00,
2013-03-21 07:51:00,19.3,13.9,29.88,SSW,203,2.0,6.0,79,0.00,,---,0.00,VWS V13.01,2013-03-21 11:51:00,
2013-03-21 07:56:00,19.3,13.9,29.88,SSW,211,2.0,6.0,79,0.00,,---,0.00,VWS V13.01,2013-03-21 11:56:00,
2013-03-21 08:01:00,19.4,14.0,29.88,SW,229,3.0,3.0,79,0.00,,---,0.00,VWS V13.01,2013-03-21 12:01:00,
2013-03-21 08:06:00,19.5,14.1,29.88,WSW,257,2.0,5.0,79,0.00,,---,0.00,VWS V13.01,2013-03-21 12:06:00,
2013-03-21 08:11:00,19.8,13.5,29.88,West,274,2.0,7.0,76,0.00,,---,0.00,VWS V13.01,2013-03-21 12:11:00,
2013-03-21 08:16:00,20.1,12.9,29.88,WNW,291,6.0,8.0,73,0.00,,---,0.00,VWS V13.01,2013-03-21 12:16:00,
2013-03-21 08:21:00,20.4,11.5,29.88,WSW,258,8.0,13.0,68,0.00,,---,0.00,VWS V13.01,2013-03-21 12:21:00,
2013-03-21 08:26:00,20.7,11.1,29.88,WSW,238,4.0,13.0,66,0.00,,---,0.00,VWS V13.01,2013-03-21 12:26:00,
2013-03-21 08:31:00,21.0,11.1,29.88,WSW,253,5.0,9.0,65,0.00,,---,0.00,VWS V13.01,2013-03-21 12:31:00,
2013-03-21 08:36:00,21.2,11.3,29.88,WSW,246,6.0,12.0,65,0.00,,---,0.00,VWS V13.01,2013-03-21 12:36:00,
2013-03-21 08:41:00,21.5,11.2,29.88,WNW,283,3.0,12.0,64,0.00,,---,0.00,VWS V13.01,2013-03-21 12:41:00,
2013-03-21 08:46:00,21.8,11.2,29.88,West,264,8.0,12.0,63,0.00,,---,0.00,VWS V13.01,2013-03-21 12:46:00,
2013-03-21 08:51:00,22.0,11.0,29.89,WNW,299,5.0,12.0,62,0.00,,---,0.00,VWS V13.01,2013-03-21 12:51:00,
2013-03-21 08:56:00,22.0,11.0,29.88,West,265,3.0,12.0,62,0.00,,---,0.00,VWS V13.01,2013-03-21 12:56:00,
2013-03-21 09:01:00,22.0,10.6,29.89,WNW,301,2.0,4.0,61,0.00,,---,0.00,VWS V13.01,2013-03-21 13:01:00,
2013-03-21 09:06:00,22.1,10.7,29.88,West,269,3.0,11.0,61,0.00,,---,0.00,VWS V13.01,2013-03-21 13:06:00,
2013-03-21 09:11:00,22.4,11.0,29.88,WNW,282,4.0,11.0,61,0.00,,---,0.00,VWS V13.01,2013-03-21 13:11:00,
2013-03-21 09:16:00,22.5,11.1,29.89,West,276,5.0,11.0,61,0.00,,---,0.00,VWS V13.01,2013-03-21 13:16:00,
2013-03-21 09:21:00,22.6,11.2,29.88,WSW,256,8.0,12.0,61,0.00,,---,0.00,VWS V13.01,2013-03-21 13:21:00,
2013-03-21 09:26:00,22.7,11.6,29.88,WSW,242,6.0,12.0,62,0.00,,---,0.00,VWS V13.01,2013-03-21 13:26:00,
2013-03-21 09:31:00,23.0,11.9,29.89,WSW,252,6.0,6.0,62,0.00,,---,0.00,VWS V13.01,2013-03-21 13:31:00,
2013-03-21 09:36:00,23.1,11.7,29.89,West,279,2.0,9.0,61,0.00,,---,0.00,VWS V13.01,2013-03-21 13:36:00,
2013-03-21 09:41:00,23.1,11.7,29.88,WSW,250,4.0,10.0,61,0.00,,---,0.00,VWS V13.01,2013-03-21 13:41:00,
2013-03-21 09:46:00,23.3,11.9,29.88,WSW,247,5.0,11.0,61,0.00,,---,0.00,VWS V13.01,2013-03-21 13:46:00,
2013-03-21 09:51:00,23.4,11.6,29.88,WNW,290,8.0,11.0,60,0.00,,---,0.00,VWS V13.01,2013-03-21 13:51:00,
2013-03-21 09:56:00,23.9,11.3,29.88,SW,236,3.0,11.0,58,0.00,,---,0.00,VWS V13.01,2013-03-21 13:56:00,
2013-03-21 10:01:00,24.2,11.6,29.88,West,265,10.0,10.0,58,0.00,,---,0.00,VWS V13.01,2013-03-21 14:01:00,
2013-03-21 10:06:00,24.3,11.7,29.88,West,259,3.0,10.0,58,0.00,,---,0.00,VWS V13.01,2013-03-21 14:06:00,
2013-03-21 10:11:00,24.4,11.0,29.88,SW,233,6.0,12.0,56,0.00,,---,0.00,VWS V13.01,2013-03-21 14:11:00,
2013-03-21 10:16:00,24.1,10.7,29.88,WNW,298,3.0,12.0,56,0.00,,---,0.00,VWS V13.01,2013-03-21 14:16:00,
2013-03-21 10:21:00,23.6,10.6,29.88,WNW,289,5.0,12.0,57,0.00,,---,0.00,VWS V13.01,2013-03-21 14:21:00,
2013-03-21 10:26:00,23.4,10.0,29.88,West,263,4.0,12.0,56,0.00,,---,0.00,VWS V13.01,2013-03-21 14:26:00,
2013-03-21 10:31:00,23.9,11.3,29.88,West,263,6.0,8.0,58,0.00,,---,0.00,VWS V13.01,2013-03-21 14:31:00,
2013-03-21 10:36:00,24.3,10.9,29.88,WSW,250,8.0,15.0,56,0.00,,---,0.00,VWS V13.01,2013-03-21 14:36:00,
2013-03-21 10:41:00,24.6,11.6,29.88,West,278,11.0,15.0,57,0.00,,---,0.00,VWS V13.01,2013-03-21 14:41:00,
2013-03-21 10:46:00,24.7,9.6,29.88,WSW,239,12.0,15.0,52,0.00,,---,0.00,VWS V13.01,2013-03-21 14:46:00,
2013-03-21 10:51:00,24.6,9.9,29.88,West,269,3.0,16.0,53,0.00,,---,0.00,VWS V13.01,2013-03-21 14:51:00,
2013-03-21 10:56:00,25.1,10.0,29.88,West,261,10.0,22.0,52,0.00,,---,0.00,VWS V13.01,2013-03-21 14:56:00,
2013-03-21 11:01:00,25.3,9.7,29.89,WSW,258,4.0,13.0,51,0.00,,---,0.00,VWS V13.01,2013-03-21 15:01:00,
2013-03-21 11:07:00,24.7,8.7,29.89,West,263,5.0,17.0,50,0.00,,---,0.00,VWS V13.01,2013-03-21 15:07:00,
2013-03-21 11:12:00,24.5,9.8,29.89,WSW,258,7.0,17.0,53,0.00,,---,0.00,VWS V13.01,2013-03-21 15:12:00,
2013-03-21 11:17:00,24.9,9.4,29.89,WNW,302,11.0,19.0,51,0.00,,---,0.00,VWS V13.01,2013-03-21 15:17:00,
2013-03-21 11:22:00,24.6,8.6,29.89,SW,231,9.0,19.0,50,0.00,,---,0.00,VWS V13.01,2013-03-21 15:22:00,
2013-03-21 11:27:00,24.3,7.9,29.89,West,270,7.0,19.0,49,0.00,,---,0.00,VWS V13.01,2013-03-21 15:27:00,
2013-03-21 11:32:00,24.4,8.9,29.89,WNW,297,4.0,8.0,51,0.00,,---,0.00,VWS V13.01,2013-03-21 15:32:00,
2013-03-21 11:37:00,24.3,8.4,29.89,WNW,302,8.0,14.0,50,0.00,,---,0.00,VWS V13.01,2013-03-21 15:37:00,
2013-03-21 11:42:00,23.8,8.3,29.90,West,267,3.0,15.0,51,0.00,,---,0.00,VWS V13.01,2013-03-21 15:42:00,
2013-03-21 11:47:00,24.2,8.7,29.90,NW,306,10.0,15.0,51,0.00,,---,0.00,VWS V13.01,2013-03-21 15:47:00,
2013-03-21 11:52:00,24.1,8.2,29.90,NW,317,8.0,15.0,50,0.00,,---,0.00,VWS V13.01,2013-03-21 15:52:00,
2013-03-21 11:57:00,24.1,7.7,29.90,West,264,4.0,15.0,49,0.00,,---,0.00,VWS V13.01,2013-03-21 15:57:00,
2013-03-21 12:02:00,24.3,8.8,29.90,WSW,242,8.0,15.0,51,0.00,,---,0.00,VWS V13.01,2013-03-21 16:02:00,
2013-03-21 12:07:00,24.4,8.9,29.90,WSW,254,5.0,15.0,51,0.00,,---,0.00,VWS V13.01,2013-03-21 16:07:00,
2013-03-21 12:12:00,24.4,9.3,29.90,WSW,256,11.0,16.0,52,0.00,,---,0.00,VWS V13.01,2013-03-21 16:12:00,
2013-03-21 12:17:00,24.5,9.0,29.89,West,265,8.0,16.0,51,0.00,,---,0.00,VWS V13.01,2013-03-21 16:17:00,
2013-03-21 12:22:00,25.3,9.7,29.89,WSW,242,8.0,16.0,51,0.00,,---,0.00,VWS V13.01,2013-03-21 16:22:00,
2013-03-21 12:27:00,25.2,9.2,29.89,West,259,6.0,16.0,50,0.00,,---,0.00,VWS V13.01,2013-03-21 16:27:00,
2013-03-21 12:32:00,24.8,9.2,29.89,SW,227,6.0,11.0,51,0.00,,---,0.00,VWS V13.01,2013-03-21 16:32:00,
2013-03-21 12:37:00,25.1,9.5,29.89,WNW,294,4.0,14.0,51,0.00,,---,0.00,VWS V13.01,2013-03-21 16:37:00,
2013-03-21 12:42:00,25.5,9.9,29.89,WSW,250,9.0,14.0,51,0.00,,---,0.00,VWS V13.01,2013-03-21 16:42:00,
2013-03-21 12:47:00,25.6,9.6,29.89,SW,214,10.0,17.0,50,0.00,,---,0.00,VWS V13.01,2013-03-21 16:47:00,
2013-03-21 12:52:00,25.1,9.5,29.90,WSW,247,6.0,17.0,51,0.00,,---,0.00,VWS V13.01,2013-03-21 16:52:00,
2013-03-21 12:57:00,25.3,10.1,29.89,West,273,4.0,17.0,52,0.00,,---,0.00,VWS V13.01,2013-03-21 16:57:00,
2013-03-21 13:02:00,26.0,11.6,29.89,SW,229,5.0,7.0,54,0.00,,---,0.00,VWS V13.01,2013-03-21 17:02:00,
2013-03-21 13:07:00,25.9,9.4,29.89,WSW,242,6.0,20.0,49,0.00,,---,0.00,VWS V13.01,2013-03-21 17:07:00,
2013-03-21 13:12:00,26.1,10.0,29.89,West,275,6.0,20.0,50,0.00,,---,0.00,VWS V13.01,2013-03-21 17:12:00,
2013-03-21 13:17:00,25.8,9.3,29.89,SW,235,9.0,20.0,49,0.00,,---,0.00,VWS V13.01,2013-03-21 17:17:00,
2013-03-21 13:22:00,25.6,9.1,29.89,WSW,256,3.0,20.0,49,0.00,,---,0.00,VWS V13.01,2013-03-21 17:22:00,
2013-03-21 13:27:00,25.6,10.0,29.89,WSW,250,6.0,20.0,51,0.00,,---,0.00,VWS V13.01,2013-03-21 17:27:00,
2013-03-21 13:32:00,25.9,11.1,29.90,West,270,8.0,13.0,53,0.00,,---,0.00,VWS V13.01,2013-03-21 17:32:00,
2013-03-21 13:37:00,26.8,10.2,29.90,WSW,248,9.0,13.0,49,0.00,,---,0.00,VWS V13.01,2013-03-21 17:37:00,
2013-03-21 13:42:00,26.7,9.7,29.90,WNW,283,13.0,14.0,48,0.00,,---,0.00,VWS V13.01,2013-03-21 17:42:00,
2013-03-21 13:47:00,26.4,10.3,29.90,WNW,288,13.0,14.0,50,0.00,,---,0.00,VWS V13.01,2013-03-21 17:47:00,
2013-03-21 13:53:00,26.0,10.8,29.90,WSW,242,7.0,14.0,52,0.00,,---,0.00,VWS V13.01,2013-03-21 17:53:00,
2013-03-21 13:58:00,26.3,11.5,29.89,West,267,9.0,14.0,53,0.00,,---,0.00,VWS V13.01,2013-03-21 17:58:00,
2013-03-21 14:03:00,27.1,11.4,29.89,SW,222,12.0,17.0,51,0.00,,---,0.00,VWS V13.01,2013-03-21 18:03:00,
2013-03-21 14:08:00,26.6,10.0,29.89,WNW,292,5.0,17.0,49,0.00,,---,0.00,VWS V13.01,2013-03-21 18:08:00,
2013-03-21 14:12:00,25.9,9.8,29.89,WNW,302,5.0,17.0,50,0.00,,---,0.00,VWS V13.01,2013-03-21 18:12:00,
2013-03-21 14:17:00,25.7,9.2,29.90,SW,234,3.0,17.0,49,0.00,,---,0.00,VWS V13.01,2013-03-21 18:17:00,
2013-03-21 14:22:00,25.6,10.4,29.89,SSW,205,7.0,17.0,52,0.00,,---,0.00,VWS V13.01,2013-03-21 18:22:00,
2013-03-21 14:27:00,25.5,10.8,29.90,NW,306,9.0,17.0,53,0.00,,---,0.00,VWS V13.01,2013-03-21 18:27:00,
2013-03-21 14:32:00,25.6,10.9,29.89,SW,229,7.0,13.0,53,0.00,,---,0.00,VWS V13.01,2013-03-21 18:32:00,
2013-03-21 14:37:00,25.9,10.3,29.89,WSW,252,3.0,14.0,51,0.00,,---,0.00,VWS V13.01,2013-03-21 18:37:00,
2013-03-21 14:43:00,26.7,11.4,29.89,WSW,248,5.0,14.0,52,0.00,,---,0.00,VWS V13.01,2013-03-21 18:43:00,
2013-03-21 14:48:00,27.2,11.0,29.89,WSW,237,8.0,14.0,50,0.00,,---,0.00,VWS V13.01,2013-03-21 18:48:00,
2013-03-21 14:53:00,26.8,10.7,29.88,West,263,5.0,15.0,50,0.00,,---,0.00,VWS V13.01,2013-03-21 18:53:00,
2013-03-21 14:58:00,27.1,11.8,29.89,WNW,298,12.0,16.0,52,0.00,,---,0.00,VWS V13.01,2013-03-21 18:58:00,
2013-03-21 15:03:00,26.8,11.1,29.89,WSW,252,11.0,16.0,51,0.00,,---,0.00,VWS V13.01,2013-03-21 19:03:00,
2013-03-21 15:08:00,26.6,10.9,29.89,SW,233,12.0,16.0,51,0.00,,---,0.00,VWS V13.01,2013-03-21 19:08:00,
2013-03-21 15:13:00,26.7,11.0,29.89,SW,234,3.0,18.0,51,0.00,,---,0.00,VWS V13.01,2013-03-21 19:13:00,
2013-03-21 15:17:00,27.1,10.5,29.88,WSW,249,9.0,18.0,49,0.00,,---,0.00,VWS V13.01,2013-03-21 19:17:00,
2013-03-21 15:22:00,27.1,11.4,29.89,West,259,9.0,19.0,51,0.00,,---,0.00,VWS V13.01,2013-03-21 19:22:00,
2013-03-21 15:27:00,27.3,10.7,29.89,West,261,9.0,19.0,49,0.00,,---,0.00,VWS V13.01,2013-03-21 19:27:00,
2013-03-21 15:32:00,27.3,11.6,29.89,WSW,244,5.0,9.0,51,0.00,,---,0.00,VWS V13.01,2013-03-21 19:32:00,
2013-03-21 15:37:00,27.1,10.5,29.89,WSW,244,11.0,13.0,49,0.00,,---,0.00,VWS V13.01,2013-03-21 19:37:00,
2013-03-21 15:43:00,27.3,11.1,29.89,WNW,283,15.0,17.0,50,0.00,,---,0.00,VWS V13.01,2013-03-21 19:43:00,
2013-03-21 15:48:00,27.6,10.9,29.89,NW,312,5.0,17.0,49,0.00,,---,0.00,VWS V13.01,2013-03-21 19:48:00,
2013-03-21 15:53:00,27.5,10.4,29.89,WNW,283,9.0,17.0,48,0.00,,---,0.00,VWS V13.01,2013-03-21 19:53:00,
2013-03-21 15:58:00,27.6,10.9,29.89,West,276,1.0,17.0,49,0.00,,---,0.00,VWS V13.01,2013-03-21 19:58:00,
2013-03-21 16:03:00,27.6,10.9,29.89,WNW,299,6.0,19.0,49,0.00,,---,0.00,VWS V13.01,2013-03-21 20:03:00,
2013-03-21 16:08:00,27.4,10.3,29.88,West,260,4.0,19.0,48,0.00,,---,0.00,VWS V13.01,2013-03-21 20:08:00,
2013-03-21 16:13:00,27.6,10.9,29.89,SSW,211,12.0,19.0,49,0.00,,---,0.00,VWS V13.01,2013-03-21 20:13:00,
2013-03-21 16:18:00,27.7,11.0,29.89,West,259,8.0,19.0,49,0.00,,---,0.00,VWS V13.01,2013-03-21 20:18:00,
2013-03-21 16:23:00,28.0,11.8,29.89,West,277,6.0,19.0,50,0.00,,---,0.00,VWS V13.01,2013-03-21 20:23:00,
2013-03-21 16:28:00,28.4,11.7,29.89,SW,232,11.0,19.0,49,0.00,,---,0.00,VWS V13.01,2013-03-21 20:28:00,
2013-03-21 16:33:00,27.6,10.9,29.89,West,261,7.0,15.0,49,0.00,,---,0.00,VWS V13.01,2013-03-21 20:33:00,
2013-03-21 16:38:00,27.5,10.9,29.89,West,263,5.0,15.0,49,0.00,,---,0.00,VWS V13.01,2013-03-21 20:38:00,
2013-03-21 16:43:00,27.4,10.8,29.89,WSW,241,9.0,16.0,49,0.00,,---,0.00,VWS V13.01,2013-03-21 20:43:00,
2013-03-21 16:48:00,27.3,11.1,29.89,WNW,284,5.0,16.0,50,0.00,,---,0.00,VWS V13.01,2013-03-21 20:48:00,
2013-03-21 16:53:00,27.2,10.6,29.89,WNW,286,8.0,16.0,49,0.00,,---,0.00,VWS V13.01,2013-03-21 20:53:00,
2013-03-21 16:58:00,27.5,11.3,29.89,WSW,243,6.0,16.0,50,0.00,,---,0.00,VWS V13.01,2013-03-21 20:58:00,
2013-03-21 17:03:00,28.1,12.3,29.89,WSW,238,15.0,15.0,51,0.00,,---,0.00,VWS V13.01,2013-03-21 21:03:00,
2013-03-21 17:08:00,28.4,11.2,29.89,WSW,245,13.0,15.0,48,0.00,,---,0.00,VWS V13.01,2013-03-21 21:08:00,
2013-03-21 17:13:00,28.4,11.2,29.89,WNW,303,5.0,15.0,48,0.00,,---,0.00,VWS V13.01,2013-03-21 21:13:00,
2013-03-21 17:18:00,28.5,11.3,29.90,WSW,246,6.0,15.0,48,0.00,,---,0.00,VWS V13.01,2013-03-21 21:18:00,
2013-03-21 17:23:00,28.5,11.3,29.90,West,273,5.0,15.0,48,0.00,,---,0.00,VWS V13.01,2013-03-21 21:23:00,
2013-03-21 17:28:00,28.8,12.1,29.89,WSW,250,3.0,15.0,49,0.00,,---,0.00,VWS V13.01,2013-03-21 21:28:00,
2013-03-21 17:33:00,28.6,11.9,29.90,WSW,258,7.0,13.0,49,0.00,,---,0.00,VWS V13.01,2013-03-21 21:33:00,
2013-03-21 17:38:00,28.4,11.7,29.90,WNW,286,6.0,13.0,49,0.00,,---,0.00,VWS V13.01,2013-03-21 21:38:00,
2013-03-21 17:43:00,28.1,11.4,29.90,West,279,5.0,13.0,49,0.00,,---,0.00,VWS V13.01,2013-03-21 21:43:00,
2013-03-21 17:48:00,28.1,11.4,29.90,WNW,292,3.0,13.0,49,0.00,,---,0.00,VWS V13.01,2013-03-21 21:48:00,
2013-03-21 17:53:00,28.3,11.1,29.90,NW,319,8.0,13.0,48,0.00,,---,0.00,VWS V13.01,2013-03-21 21:53:00,
2013-03-21 17:58:00,28.8,12.5,29.90,West,259,8.0,14.0,50,0.00,,---,0.00,VWS V13.01,2013-03-21 21:58:00,
2013-03-21 18:03:00,29.0,12.2,29.90,WSW,241,5.0,10.0,49,0.00,,---,0.00,VWS V13.01,2013-03-21 22:03:00,
2013-03-21 18:08:00,28.7,12.0,29.90,West,262,4.0,14.0,49,0.00,,---,0.00,VWS V13.01,2013-03-21 22:08:00,
2013-03-21 18:13:00,28.1,11.9,29.90,SW,233,4.0,16.0,50,0.00,,---,0.00,VWS V13.01,2013-03-21 22:13:00,
2013-03-21 18:18:00,27.8,11.6,29.90,WNW,293,8.0,16.0,50,0.00,,---,0.00,VWS V13.01,2013-03-21 22:18:00,
2013-03-21 18:23:00,27.7,11.5,29.90,NNW,345,6.0,16.0,50,0.00,,---,0.00,VWS V13.01,2013-03-21 22:23:00,
2013-03-21 18:28:00,27.6,11.9,29.90,WSW,248,7.0,16.0,51,0.00,,---,0.00,VWS V13.01,2013-03-21 22:28:00,
2013-03-21 18:33:00,27.5,12.2,29.90,SSW,212,6.0,11.0,52,0.00,,---,0.00,VWS V13.01,2013-03-21 22:33:00,
2013-03-21 18:38:00,27.5,12.2,29.90,SW,232,6.0,12.0,52,0.00,,---,0.00,VWS V13.01,2013-03-21 22:38:00,
2013-03-21 18:43:00,27.5,12.6,29.91,WSW,258,6.0,12.0,53,0.00,,---,0.00,VWS V13.01,2013-03-21 22:43:00,
2013-03-21 18:48:00,27.3,12.9,29.91,West,273,5.0,18.0,54,0.00,,---,0.00,VWS V13.01,2013-03-21 22:48:00,
2013-03-21 18:53:00,27.2,13.2,29.91,WNW,288,7.0,18.0,55,0.00,,---,0.00,VWS V13.01,2013-03-21 22:53:00,
2013-03-21 18:58:00,27.2,13.2,29.91,WNW,287,7.0,18.0,55,0.00,,---,0.00,VWS V13.01,2013-03-21 22:58:00,
2013-03-21 19:03:00,27.2,13.6,29.92,WNW,293,2.0,10.0,56,0.00,,---,0.00,VWS V13.01,2013-03-21 23:03:00,
2013-03-21 19:08:00,27.2,13.6,29.92,West,270,6.0,14.0,56,0.00,,---,0.00,VWS V13.01,2013-03-21 23:08:00,
2013-03-21 19:13:00,27.2,13.6,29.92,West,261,8.0,16.0,56,0.00,,---,0.00,VWS V13.01,2013-03-21 23:13:00,
2013-03-21 19:18:00,27.2,13.6,29.92,WSW,244,10.0,16.0,56,0.00,,---,0.00,VWS V13.01,2013-03-21 23:18:00,
2013-03-21 19:23:00,27.1,13.9,29.92,WSW,252,9.0,16.0,57,0.00,,---,0.00,VWS V13.01,2013-03-21 23:23:00,
2013-03-21 19:28:00,27.1,14.3,29.92,West,261,9.0,16.0,58,0.00,,---,0.00,VWS V13.01,2013-03-21 23:28:00,
2013-03-21 19:33:00,27.0,14.2,29.92,West,261,6.0,10.0,58,0.00,,---,0.00,VWS V13.01,2013-03-21 23:33:00,
2013-03-21 19:38:00,27.0,14.6,29.92,West,277,11.0,16.0,59,0.00,,---,0.00,VWS V13.01,2013-03-21 23:38:00,
2013-03-21 19:43:00,27.0,15.0,29.92,WSW,249,6.0,16.0,60,0.00,,---,0.00,VWS V13.01,2013-03-21 23:43:00,
2013-03-21 19:48:00,26.9,15.3,29.92,WNW,296,7.0,16.0,61,0.00,,---,0.00,VWS V13.01,2013-03-21 23:48:00,
2013-03-21 19:53:00,26.9,15.6,29.92,WSW,244,4.0,16.0,62,0.00,,---,0.00,VWS V13.01,2013-03-21 23:53:00,
2013-03-21 19:58:00,26.7,15.8,29.92,West,261,6.0,16.0,63,0.00,,---,0.00,VWS V13.01,2013-03-21 23:58:00,
2013-03-21 20:03:00,26.7,16.2,29.92,SW,229,3.0,13.0,64,0.00,,---,0.00,VWS V13.01,2013-03-22 00:03:00,
2013-03-21 20:08:00,26.6,16.4,29.92,WNW,285,5.0,13.0,65,0.00,,---,0.00,VWS V13.01,2013-03-22 00:08:00,
2013-03-21 20:13:00,26.6,16.8,29.92,WSW,257,8.0,16.0,66,0.00,,---,0.00,VWS V13.01,2013-03-22 00:13:00,
2013-03-21 20:18:00,26.5,17.0,29.93,WSW,252,5.0,16.0,67,0.00,,---,0.00,VWS V13.01,2013-03-22 00:18:00,
2013-03-21 20:23:00,26.5,17.0,29.93,SSW,205,5.0,16.0,67,0.00,,---,0.00,VWS V13.01,2013-03-22 00:23:00,
2013-03-21 20:28:00,26.4,16.9,29.93,West,273,6.0,16.0,67,0.00,,---,0.00,VWS V13.01,2013-03-22 00:28:00,
2013-03-21 20:33:00,26.3,17.2,29.93,SW,234,4.0,12.0,68,0.00,,---,0.00,VWS V13.01,2013-03-22 00:33:00,
2013-03-21 20:38:00,26.3,17.2,29.93,WSW,239,4.0,14.0,68,0.00,,---,0.00,VWS V13.01,2013-03-22 00:38:00,
2013-03-21 20:43:00,26.3,17.2,29.93,SSW,213,8.0,14.0,68,0.00,,---,0.00,VWS V13.01,2013-03-22 00:43:00,
2013-03-21 20:48:00,26.3,17.2,29.93,WSW,252,3.0,14.0,68,0.00,,---,0.00,VWS V13.01,2013-03-22 00:48:00,
2013-03-21 20:53:00,26.3,17.2,29.93,WSW,249,5.0,14.0,68,0.00,,---,0.00,VWS V13.01,2013-03-22 00:53:00,
2013-03-21 20:58:00,26.4,17.3,29.93,WSW,249,4.0,14.0,68,0.00,,---,0.00,VWS V13.01,2013-03-22 00:58:00,
2013-03-21 21:03:00,26.5,17.4,29.93,WSW,240,8.0,15.0,68,0.00,,---,0.00,VWS V13.01,2013-03-22 01:03:00,
2013-03-21 21:08:00,26.5,17.4,29.93,WNW,289,7.0,15.0,68,0.00,,---,0.00,VWS V13.01,2013-03-22 01:08:00,
2013-03-21 21:13:00,26.6,17.5,29.93,West,263,7.0,15.0,68,0.00,,---,0.00,VWS V13.01,2013-03-22 01:13:00,
2013-03-21 21:18:00,26.6,17.5,29.93,WSW,246,7.0,15.0,68,0.00,,---,0.00,VWS V13.01,2013-03-22 01:18:00,
2013-03-21 21:23:00,26.6,17.8,29.93,SW,220,7.0,15.0,69,0.00,,---,0.00,VWS V13.01,2013-03-22 01:23:00,
2013-03-21 21:28:00,26.7,17.9,29.93,SW,215,7.0,15.0,69,0.00,,---,0.00,VWS V13.01,2013-03-22 01:28:00,
2013-03-21 21:33:00,26.7,17.6,29.93,West,265,10.0,16.0,68,0.00,,---,0.00,VWS V13.01,2013-03-22 01:33:00,
2013-03-21 21:38:00,26.7,17.9,29.93,SW,227,5.0,16.0,69,0.00,,---,0.00,VWS V13.01,2013-03-22 01:38:00,
2013-03-21 21:43:00,26.7,17.9,29.93,WNW,282,7.0,16.0,69,0.00,,---,0.00,VWS V13.01,2013-03-22 01:43:00,
2013-03-21 21:48:00,26.7,17.9,29.93,WSW,248,3.0,16.0,69,0.00,,---,0.00,VWS V13.01,2013-03-22 01:48:00,
2013-03-21 21:53:00,26.7,17.9,29.93,SW,234,12.0,16.0,69,0.00,,---,0.00,VWS V13.01,2013-03-22 01:53:00,
2013-03-21 21:58:00,26.7,18.2,29.93,WSW,256,7.0,16.0,70,0.00,,---,0.00,VWS V13.01,2013-03-22 01:58:00,
2013-03-21 22:03:00,26.7,18.6,29.94,SW,234,7.0,14.0,71,0.00,,---,0.00,VWS V13.01,2013-03-22 02:03:00,
2013-03-21 22:08:00,26.6,18.5,29.94,WSW,237,5.0,15.0,71,0.00,,---,0.00,VWS V13.01,2013-03-22 02:08:00,
2013-03-21 22:13:00,26.6,18.5,29.93,WSW,244,10.0,17.0,71,0.00,,---,0.00,VWS V13.01,2013-03-22 02:13:00,
2013-03-21 22:18:00,26.6,18.5,29.94,WSW,244,6.0,17.0,71,0.00,,---,0.00,VWS V13.01,2013-03-22 02:18:00,
2013-03-21 22:23:00,26.6,18.5,29.94,SW,236,11.0,17.0,71,0.00,,---,0.00,VWS V13.01,2013-03-22 02:23:00,
2013-03-21 22:28:00,26.6,18.5,29.94,SW,236,10.0,17.0,71,0.00,,---,0.00,VWS V13.01,2013-03-22 02:28:00,
2013-03-21 22:33:00,26.5,18.4,29.94,SSW,213,16.0,18.0,71,0.00,,---,0.00,VWS V13.01,2013-03-22 02:33:00,
2013-03-21 22:38:00,26.5,18.7,29.94,West,259,5.0,18.0,72,0.00,,---,0.00,VWS V13.01,2013-03-22 02:38:00,
2013-03-21 22:43:00,26.5,18.7,29.94,SW,227,4.0,18.0,72,0.00,,---,0.00,VWS V13.01,2013-03-22 02:43:00,
2013-03-21 22:48:00,26.5,19.0,29.94,SW,223,8.0,18.0,73,0.00,,---,0.00,VWS V13.01,2013-03-22 02:48:00,
2013-03-21 22:53:00,26.5,18.7,29.94,WSW,242,9.0,18.0,72,0.00,,---,0.00,VWS V13.01,2013-03-22 02:53:00,
2013-03-21 22:58:00,26.5,18.7,29.94,WSW,254,5.0,18.0,72,0.00,,---,0.00,VWS V13.01,2013-03-22 02:58:00,
2013-03-21 23:03:00,26.6,19.1,29.94,SW,223,10.0,15.0,73,0.00,,---,0.00,VWS V13.01,2013-03-22 03:03:00,
2013-03-21 23:08:00,26.6,19.1,29.94,SW,229,16.0,18.0,73,0.00,,---,0.00,VWS V13.01,2013-03-22 03:08:00,
2013-03-21 23:13:00,26.6,19.4,29.94,West,265,11.0,18.0,74,0.00,,---,0.00,VWS V13.01,2013-03-22 03:13:00,
2013-03-21 23:18:00,26.5,19.7,29.94,SW,217,9.0,18.0,75,0.00,,---,0.00,VWS V13.01,2013-03-22 03:18:00,
2013-03-21 23:23:00,26.4,20.2,29.94,West,263,9.0,18.0,77,0.00,,---,0.00,VWS V13.01,2013-03-22 03:23:00,
2013-03-21 23:28:00,26.2,20.3,29.94,SW,223,6.0,18.0,78,0.00,,---,0.00,VWS V13.01,2013-03-22 03:28:00,
2013-03-21 23:33:00,26.0,20.4,29.94,WSW,250,5.0,14.0,79,0.00,,---,0.00,VWS V13.01,2013-03-22 03:33:00,
2013-03-21 23:38:00,25.9,20.6,29.95,West,261,7.0,14.0,80,0.00,,---,0.00,VWS V13.01,2013-03-22 03:38:00,
2013-03-21 23:43:00,25.8,20.8,29.95,SW,227,8.0,14.0,81,0.00,,---,0.00,VWS V13.01,2013-03-22 03:43:00,
2013-03-21 23:48:00,25.7,21.0,29.95,WSW,239,8.0,14.0,82,0.00,,---,0.00,VWS V13.01,2013-03-22 03:48:00,
2013-03-21 23:53:00,25.4,21.0,29.95,WSW,241,8.0,14.0,83,0.00,,---,0.00,VWS V13.01,2013-03-22 03:53:00,
2013-03-21 23:58:00,25.3,20.9,29.94,SW,236,8.0,14.0,83,0.00,,---,0.00,VWS V13.01,2013-03-22 03:58:00,